Location: Manhattan
(39.1840°N, 96.5710°W)
Time: 21:58:29
(UTC-06:00)

ISS - Visible Passes

Search period start: 22 November 2017 00:00
Search period end: 02 December 2017 00:00
Orbit: 402 x 407 km, 51.6° (Epoch: 23 November)

Date Brightness Start Highest point End Pass type
(mag) Time Alt. Az. Time Alt. Az. Time Alt. Az.
24 Nov -1.1 19:14:51 10° SSW 19:15:24 14° SSW 19:15:24 14° SSW visible
25 Nov -2.0 18:23:24 10° S 18:25:41 18° SE 18:25:41 18° SE visible
26 Nov -2.5 19:06:21 10° SW 19:08:32 39° SW 19:08:32 39° SW visible
27 Nov -3.4 18:14:11 10° SSW 18:17:21 46° SE 18:18:36 29° E visible
27 Nov -0.2 19:51:16 10° W 19:51:17 10° W 19:51:17 10° W visible
28 Nov -2.6 18:58:24 10° W 19:01:16 36° NW 19:01:16 36° NW visible
29 Nov -3.6 18:05:47 10° WSW 18:09:03 67° NW 18:11:10 20° NE visible
30 Nov -1.8 18:50:52 10° WNW 18:53:24 20° NNW 18:53:39 20° NNW visible
01 Dec -2.4 17:57:54 10° W 18:00:51 30° NNW 18:03:25 12° NNE visible
